Back to catalog

OPS 4682 DEB

AlivePO
NORAD 38433·DEBRIS·🇺🇸 United States

Launched Apr 3, 1965 from Vandenberg Space Force Base

Loading…

Next Passes (next 24 hours)

TLE

FreshSource: Space-Track

Epoch: Sep 14, 2026, 07:15 UTC

1 38433U 65027EN  26257.30249937  .00000970  00000-0  26733-2 0  9999
2 38433  90.2644  15.4530 0026008 287.5902  72.2386 13.12341346643532

Track OPS 4682 DEB in real time with AllMySat

Download on the App Store